Location: Kitchener
(43.4500°N, 80.5000°W)
Time: 23:15:21
(UTC-04:00)

Tiangong 1 - Visible Passes

Search period start: 23 September 2017 00:00
Search period end: 03 October 2017 00:00
Orbit: 303 x 328 km, 42.8° (Epoch: 23 September)

Date Brightness Start Highest point End Pass type
(mag) Time Alt. Az. Time Alt. Az. Time Alt. Az.
23 Sep 1.2 05:56:25 35° SW 05:56:51 39° SSW 05:59:23 10° SE visible
24 Sep 2.1 06:09:37 20° SW 06:10:13 22° SSW 06:12:23 10° SSE visible
25 Sep 3.0 06:22:51 11° SW 06:23:23 12° SSW 06:24:26 10° S visible
